Home   Weather   Langley   Past weeks

Flag for Canada Past Weather in Langley, British Columbia, Canada — Yesterday and Last 2 Weeks

Now
40 °F

Quite cool.


Feels Like: 34 °F
Forecast: 39 / 46 °F
Wind: 10 mph from Northeast

Location: P. Meadows Coastal Station

Current Time: Jan 17, 2017 at 5:24:37 am

Latest Report: Jan 17, 2017 at 4:00 am


Visibility: N/A

Pressure: 29.80 "Hg

Humidity: 90%

Dew Point: 38 °F

Location of LangleyLocation

Past Weather in Langley — Graph

°F

Langley Temperature Yesterday

Maximum temperature yesterday: 41 °F (at 9:00 pm)
Minimum temperature yesterday: 28 °F (at 12:00 am)
Average temperature yesterday: 35 °F

High & Low Weather Summary for the Past Weeks

 TemperatureHumidityPressure
High41 °F (Jan 16, 9:00 pm)99% (Jan 7, 3:00 am)30.49 "Hg (Jan 7, 3:00 am)
Low14 °F (Jan 4, 7:00 am)33% (Jan 3, 1:00 pm)29.44 "Hg (Jan 8, 4:00 pm)
Average28 °F76%30.10 "Hg
* Reported Jan 2 4:00 am — Jan 17 4:00 am, Langley, Weather by CustomWeather, © 2017

Note: Actual official high and low records may vary slightly from our data, if they occured in-between our weather recording intervals... More about our weather records

Advertising

Langley Weather History for the Previous 24 Hours

Scroll right to see more
 ConditionsComfort  
Time TempWeatherWind HumidityBarometerVisibility
4:00 am
Tue, Jan 17
40 °FQuite cool.10 mph90%29.80 "HgN/A
3:00 am40 °FQuite cool.7 mph90%29.85 "HgN/A
2:00 am40 °FChilly.5 mph90%29.85 "HgN/A
1:00 am40 °FChilly.10 mph88%29.87 "HgN/A
12:00 am38 °FChilly.12 mph96%29.88 "HgN/A
11:00 pm
Mon, Jan 16
40 °FChilly.7 mph90%29.90 "HgN/A
10:00 pm40 °FChilly.7 mph91%29.94 "HgN/A
9:00 pm41 °FQuite cool.9 mph91%29.96 "HgN/A
8:00 pm40 °FQuite cool.10 mph91%29.97 "HgN/A
7:00 pm39 °FChilly.5 mph90%29.99 "HgN/A
6:00 pm36 °FChilly.2 mph84%30.00 "HgN/A
5:00 pm38 °FChilly.3 mph79%29.96 "HgN/A
4:00 pm35 °FChilly.No wind86%29.99 "HgN/A
3:00 pm36 °FChilly.2 mph80%30.01 "HgN/A
2:00 pm36 °FChilly.2 mph80%30.03 "HgN/A
1:00 pm37 °FChilly.1 mph76%30.08 "HgN/A
12:00 pm36 °FChilly.1 mph80%30.13 "HgN/A
11:00 am35 °FChilly.1 mph82%30.16 "HgN/A
10:00 am33 °FChilly.1 mph86%30.17 "HgN/A
9:00 am33 °FChilly.No wind84%30.18 "HgN/A
8:00 am33 °FChilly.1 mph87%30.19 "HgN/A
7:00 am32 °FChilly.No wind89%30.22 "HgN/A
6:00 am31 °FChilly.No wind88%30.22 "HgN/A
5:00 am31 °FChilly.1 mph87%30.23 "HgN/A
Weather by CustomWeather, © 2017

See weather overviewHow to use our weather pages